User: anonymous   Login
Location: Newark
(42.9277°N, 71.8621°W)
Time: 09:11:58
(UTC+00:00)
Language:

Hubble Space Telescope - Orbit

View from above orbital plane
View from above orbital plane
View from above satellite
View from above satellite

Ground track
Ground track

The orbit data is extracted from the following two-line orbital elements,

1 20580U 90037B   20157.78380640 +.00000391 +00000-0 +12799-4 0  9990
2 20580 028.4706 036.8479 0002552 328.6431 091.6588 15.09393144454203
Epoch (UTC): 05 June 2020 18:48:40
Eccentricity: 0.0002552
inclination: 28.4706°
perigee height: 536 km
apogee height: 540 km
right ascension of ascending node: 36.8479°
argument of perigee: 328.6431°
revolutions per day: 15.09393144
mean anomaly at epoch: 91.6588°
orbit number at epoch: 45420

The dashed part of the orbit path shows where the satellite is in the earth's shadow,  

DLR